Wind_Speed
40 38 37 36 36 35 35 33 33 33 33 33 32 32 32 31 30 29 29 29 29 30 30 30 30 31 31 32 32 33 33 33 34 34 34 34 33 32 32 32 32 32 32
42 40 39 39 38 38 37 35 35 34 34 33 33 33 33 33 32 32 31 31 31 32 32 32 32 33 34 34 34 35 35 36 36 36 36 35 35 34 34 34 34 33 32
44 44 43 41 40 39 39 38 37 36 36 35 35 34 34 34 34 34 33 33 33 34 34 34 35 35 35 36 36 37 37 38 38 38 37 37 36 36 36 35 35 34 33
46 46 45 43 42 41 40 39 39 38 37 37 36 36 36 36 36 36 35 35 35 35 35 35 36 37 37 37 38 38 39 39 39 39 38 38 37 37 37 36 36 34 33
48 47 46 46 45 43 42 41 40 40 39 38 38 38 38 38 37 37 37 37 37 37 37 37 37 38 38 39 39 39 40 41 40 39 38 38 38 38 37 37 36 35 34
49 48 47 47 46 46 45 44 43 42 41 40 40 40 40 39 39 38 38 38 38 39 40 40 39 38 38 39 40 41 41 41 40 40 39 38 38 38 37 37 36 36 34
50 50 49 48 47 47 46 46 45 45 44 43 42 41 40 40 40 40 40 40 39 39 40 40 40 40 39 40 40 41 41 41 41 41 40 39 38 37 37 37 36 35 33
51 51 49 49 49 48 48 47 46 45 45 45 44 44 42 41 41 41 41 40 39 39 39 40 40 41 41 41 41 41 42 43 43 42 41 40 39 38 38 37 37 36 35
52 51 51 49 49 48 48 47 48 47 46 46 45 45 43 42 42 41 40 40 39 40 40 41 42 42 43 42 42 43 43 43 43 43 42 41 40 39 40 40 39 38 36
53 52 50 50 48 49 49 49 49 48 47 47 47 45 44 43 42 40 40 40 40 41 42 42 43 44 45 45 44 44 44 45 45 44 44 42 42 42 42 42 41 39 38
51 51 50 51 50 49 50 50 50 49 48 48 47 46 45 44 43 42 42 42 42 42 43 43 44 45 45 45 46 46 46 46 46 46 46 46 45 44 45 45 43 41 40
50 50 50 50 49 49 49 49 49 48 49 47 46 46 46 46 45 45 44 43 43 42 43 43 44 45 47 46 47 48 48 47 48 48 48 48 48 48 48 46 45 43 42
47 48 49 49 49 50 49 48 47 48 47 46 45 46 45 45 45 46 46 46 45 44 45 45 46 47 47 47 47 48 50 50 50 50 50 50 49 49 49 48 46 45 45
43 44 46 47 47 48 48 47 45 45 45 45 45 45 45 46 46 47 48 48 48 47 47 47 48 48 49 50 50 50 51 53 52 51 51 51 51 51 49 49 48 48 48
40 40 41 43 43 44 44 43 44 43 43 45 46 46 46 46 48 48 49 50 50 50 49 48 49 50 51 51 52 52 53 54 54 53 52 51 50 50 50 48 48 49 48
34 36 37 38 39 41 42 42 43 42 42 43 44 45 46 47 47 48 50 50 51 52 51 50 50 51 52 52 52 53 55 55 54 53 51 50 49 49 47 47 47 47 48
31 34 36 36 37 39 39 39 40 41 42 42 43 44 45 46 47 48 48 49 50 52 52 52 52 51 52 52 53 54 54 53 53 53 51 50 50 50 50 49 48 47 48
28 30 32 33 34 35 36 38 39 40 40 41 41 42 44 45 46 47 48 50 50 52 53 53 52 52 52 53 53 53 52 51 51 51 50 50 49 49 50 51 50 49 49
24 26 27 30 32 32 34 35 37 38 38 39 40 41 43 44 46 48 49 51 51 51 52 52 51 51 52 53 52 51 50 50 49 50 50 50 50 50 50 51 51 50 49
21 23 25 28 30 32 33 34 36 37 39 40 41 42 43 45 46 48 50 51 52 53 52 53 52 52 51 50 50 50 49 49 49 50 50 51 50 50 51 50 49 49 48
20 21 24 26 27 29 31 34 36 38 40 41 42 44 46 47 48 48 50 51 52 52 52 52 52 51 51 50 50 50 51 50 49 49 49 49 49 49 49 47 46 46 47
20 21 22 24 26 28 29 31 34 37 40 42 44 45 47 48 49 49 49 50 51 51 51 51 51 51 51 50 50 50 51 50 49 48 49 49 49 47 46 46 45 44 43
20 22 23 25 26 27 29 30 32 35 37 39 42 44 46 47 48 49 49 49 49 50 50 50 50 50 49 49 49 49 49 49 48 47 47 46 47 45 43 41 41 41 40
21 23 24 26 27 28 30 31 32 34 36 39 41 43 44 44 45 46 47 47 47 49 50 50 51 50 49 48 49 49 48 48 48 47 45 43 42 42 41 39 38 38 38
23 24 25 26 27 29 31 32 33 35 37 38 40 40 41 43 43 44 45 46 47 48 50 51 51 51 49 48 48 48 47 46 45 43 42 41 39 39 38 39 38 37 36
24 25 26 27 28 29 30 32 33 34 36 38 39 40 41 42 43 44 45 45 46 48 48 49 49 48 47 47 46 45 45 44 42 41 40 40 38 36 35 36 37 37 37
Wind_Direction
254 256 256 256 257 259 261 262 263 263 263 263 264 264 265 266 267 268 269 270 272 273 275 277 279 281 282 284 285 287 288 289 291 292 292 294 294 296 296 300 303 305 307
253 254 255 256 257 258 259 261 262 263 263 263 264 265 265 265 266 267 268 270 272 273 275 277 279 280 282 284 285 285 287 288 290 291 291 292 291 292 293 296 299 302 303
251 253 254 255 257 257 257 259 261 263 263 263 264 264 265 266 266 267 268 269 271 273 275 277 279 280 282 283 284 285 286 288 289 289 289 290 289 289 291 293 297 300 300
251 252 252 254 254 256 257 258 260 262 262 263 264 264 265 266 267 267 268 268 270 272 274 276 278 280 282 283 284 285 286 288 288 287 287 288 287 288 289 291 294 297 298
251 251 250 251 253 255 256 256 258 261 262 262 263 263 264 266 268 269 269 269 270 272 274 276 278 280 282 283 284 285 287 288 287 286 286 286 285 286 288 290 291 294 295
251 251 251 252 253 254 256 257 258 259 261 262 262 262 264 265 267 269 271 271 272 273 274 276 277 279 281 283 284 285 286 287 288 287 286 286 285 285 286 288 288 291 291
249 250 251 252 253 254 255 257 258 259 260 261 261 262 264 266 268 270 272 273 274 276 276 277 278 279 281 282 285 286 286 287 288 287 286 284 284 285 285 285 287 290 289
250 250 250 251 252 253 255 256 257 258 259 260 262 263 265 267 269 271 271 273 274 276 277 278 279 279 280 282 284 285 286 286 287 285 284 283 283 283 284 284 286 287 287
249 250 250 251 251 253 254 255 257 259 259 261 263 264 266 267 268 270 271 272 273 276 278 279 280 280 281 282 284 285 285 286 285 284 283 281 281 281 282 282 284 285 284
248 248 249 250 252 253 253 255 257 258 260 261 263 264 266 268 269 268 270 272 274 277 280 281 282 281 282 282 282 283 285 285 284 283 281 280 280 280 279 280 283 283 282
248 248 249 250 251 252 253 255 256 257 259 261 262 263 265 267 269 270 271 273 275 277 280 282 283 283 284 284 282 281 283 284 283 282 280 278 278 277 277 278 279 279 280
246 247 248 249 250 252 253 256 256 257 259 261 262 263 264 266 268 270 273 274 276 277 280 283 284 285 284 284 283 281 282 283 282 281 279 278 277 276 275 275 275 276 276
246 247 247 249 251 251 253 255 256 258 258 260 263 264 267 269 270 272 274 275 276 278 280 283 285 285 285 285 284 283 283 284 283 281 279 277 276 276 275 273 272 273 274
248 248 247 249 251 251 253 255 255 257 260 261 264 266 269 271 272 274 275 276 278 279 281 283 284 284 284 284 284 284 285 285 285 283 279 277 275 275 275 272 270 270 272
248 249 249 250 251 252 254 256 257 258 259 262 265 268 270 272 273 274 276 278 280 281 282 284 284 284 284 284 284 285 285 285 283 282 279 276 276 274 273 272 270 270 269
248 250 251 252 253 254 255 255 257 259 261 263 266 268 270 271 273 274 276 278 280 282 283 284 285 284 284 286 286 285 285 285 282 280 278 275 275 273 272 271 270 270 270
251 252 252 252 253 254 255 257 259 260 262 264 267 269 270 271 272 274 277 279 281 283 285 286 286 286 285 286 287 285 285 283 281 280 278 275 274 272 270 270 269 269 269
256 255 253 253 255 256 257 258 260 261 264 265 266 269 271 272 274 276 278 280 282 283 285 286 287 287 286 287 287 285 283 282 281 279 278 276 275 273 271 270 269 268 268
260 258 257 257 258 259 259 260 261 261 265 268 270 272 275 276 277 278 280 281 282 284 285 287 288 288 288 287 287 285 284 283 281 279 278 276 275 274 273 270 268 267 266
263 263 264 263 262 261 261 263 263 266 268 271 273 275 277 279 280 280 281 281 283 285 285 287 288 289 288 287 287 287 284 283 282 280 278 277 276 275 274 271 268 267 265
269 270 270 269 267 267 268 269 268 270 271 273 276 279 280 282 283 283 282 283 283 284 285 287 289 289 287 287 288 288 286 284 282 281 279 277 276 276 274 271 268 265 263
278 278 277 275 273 272 274 275 275 275 276 277 279 281 283 284 283 284 284 284 284 285 286 288 290 289 287 287 287 288 287 285 283 281 280 279 276 275 274 271 267 264 261
284 283 282 280 278 279 280 280 281 281 281 281 282 283 284 284 284 285 284 285 285 286 287 289 290 290 288 287 286 287 287 286 283 282 281 280 278 275 272 271 268 263 261
292 289 286 284 283 282 282 284 285 286 285 285 285 286 286 285 285 285 285 285 286 287 288 289 291 289 287 287 287 287 287 285 284 283 282 281 278 276 273 270 268 265 261
297 294 291 291 290 288 287 288 289 290 289 290 290 289 288 287 287 288 287 286 286 288 289 289 289 288 286 286 286 285 286 285 284 281 280 279 278 276 272 271 268 266 261
300 298 297 295 294 292 292 293 293 294 294 293 292 291 290 289 288 287 288 287 287 288 289 289 288 287 286 285 286 286 286 284 283 281 278 277 276 274 271 271 269 266 259
Height
5812 5814 5816 5819 5820 5822 5823 5825 5826 5827 5829 5830 5831 5831 5832 5833 5834 5834 5834 5834 5834 5834 5833 5833 5832 5831 5830 5829 5828 5827 5825 5823 5821 5819 5817 5815 5814 5813 5811 5809 5808 5806 5804
5804 5807 5809 5811 5813 5815 5816 5818 5819 5821 5822 5823 5824 5825 5826 5826 5827 5828 5828 5828 5828 5828 5827 5827 5826 5825 5824 5823 5821 5820 5818 5816 5814 5811 5810 5808 5806 5805 5804 5802 5801 5799 5797
5796 5798 5801 5803 5805 5807 5809 5810 5812 5813 5815 5816 5817 5818 5819 5819 5820 5821 5821 5821 5821 5821 5820 5820 5819 5818 5817 5815 5814 5812 5810 5808 5806 5804 5802 5800 5799 5797 5796 5795 5794 5792 5791
5786 5789 5792 5794 5796 5798 5800 5802 5804 5806 5807 5808 5809 5810 5811 5812 5812 5813 5813 5814 5813 5813 5813 5812 5811 5810 5809 5807 5806 5804 5801 5799 5797 5795 5793 5792 5791 5790 5788 5787 5786 5785 5784
5776 5780 5782 5785 5787 5790 5792 5794 5796 5798 5799 5801 5802 5802 5803 5804 5805 5805 5805 5806 5805 5805 5805 5804 5803 5802 5801 5799 5797 5795 5792 5790 5788 5786 5785 5783 5782 5781 5781 5779 5779 5778 5776
5766 5769 5773 5776 5778 5781 5783 5785 5787 5789 5791 5792 5793 5794 5795 5796 5796 5797 5797 5797 5797 5797 5796 5795 5794 5793 5792 5790 5788 5786 5784 5781 5779 5777 5776 5775 5773 5773 5772 5771 5770 5770 5768
5756 5759 5763 5766 5769 5771 5774 5776 5778 5780 5781 5782 5784 5785 5786 5787 5788 5789 5788 5788 5788 5787 5787 5786 5785 5784 5782 5781 5779 5777 5774 5772 5770 5769 5767 5766 5765 5764 5764 5763 5762 5761 5760
5745 5749 5752 5756 5759 5761 5764 5766 5768 5770 5771 5773 5774 5775 5777 5779 5779 5779 5779 5779 5779 5778 5777 5776 5776 5774 5773 5771 5769 5767 5765 5763 5761 5759 5758 5757 5756 5755 5755 5754 5753 5752 5752
5734 5737 5741 5745 5748 5751 5754 5756 5758 5760 5762 5763 5764 5766 5767 5769 5770 5770 5770 5770 5769 5769 5768 5767 5766 5764 5763 5761 5759 5757 5755 5753 5751 5750 5748 5747 5746 5746 5745 5745 5744 5743 5742
5722 5726 5730 5734 5737 5741 5744 5746 5748 5750 5751 5753 5754 5755 5757 5758 5759 5761 5761 5760 5760 5759 5759 5757 5755 5754 5752 5751 5749 5747 5745 5742 5741 5739 5738 5737 5736 5736 5735 5735 5734 5733 5733
5711 5715 5719 5723 5727 5730 5733 5735 5737 5739 5741 5742 5744 5745 5746 5747 5748 5749 5751 5751 5750 5750 5748 5747 5745 5743 5741 5739 5737 5736 5733 5731 5729 5728 5727 5726 5725 5725 5724 5724 5723 5722 5722
5699 5703 5708 5712 5715 5719 5722 5724 5726 5729 5731 5732 5733 5734 5735 5737 5737 5738 5739 5739 5739 5739 5738 5736 5734 5732 5730 5727 5725 5723 5721 5719 5717 5715 5714 5713 5713 5713 5712 5711 5711 5711 5711
5688 5693 5697 5700 5704 5707 5710 5713 5715 5717 5720 5721 5722 5724 5724 5725 5726 5726 5727 5727 5727 5728 5726 5725 5723 5720 5718 5715 5713 5710 5708 5706 5704 5701 5700 5699 5699 5699 5698 5698 5698 5699 5699
5679 5683 5686 5690 5693 5696 5699 5701 5704 5706 5709 5710 5711 5712 5713 5714 5714 5714 5714 5714 5714 5716 5715 5714 5710 5707 5705 5702 5699 5697 5695 5692 5689 5686 5685 5684 5684 5684 5684 5684 5684 5685 5686
5670 5673 5677 5680 5683 5686 5688 5691 5693 5696 5698 5699 5701 5701 5702 5703 5702 5702 5702 5701 5701 5701 5703 5701 5698 5694 5691 5688 5685 5682 5680 5676 5673 5670 5668 5667 5667 5667 5668 5669 5669 5670 5671
5661 5664 5667 5670 5673 5676 5678 5680 5683 5685 5687 5689 5689 5690 5690 5691 5690 5690 5689 5688 5686 5685 5686 5687 5684 5680 5676 5673 5670 5667 5664 5660 5657 5654 5652 5651 5651 5652 5652 5653 5654 5655 5657
5653 5656 5658 5661 5664 5666 5668 5670 5672 5674 5675 5676 5677 5678 5678 5678 5678 5677 5676 5674 5672 5670 5670 5671 5668 5664 5661 5657 5654 5650 5647 5643 5641 5639 5637 5636 5636 5636 5637 5637 5639 5640 5642
5646 5648 5650 5652 5654 5656 5658 5660 5662 5663 5663 5663 5665 5665 5666 5665 5664 5664 5662 5661 5659 5656 5654 5654 5652 5649 5645 5641 5637 5634 5631 5628 5625 5624 5622 5621 5621 5621 5621 5621 5623 5625 5627
5640 5641 5643 5644 5645 5647 5649 5650 5651 5652 5652 5652 5653 5653 5653 5652 5651 5650 5649 5647 5645 5642 5639 5637 5636 5633 5629 5625 5621 5618 5615 5612 5610 5608 5607 5606 5605 5605 5605 5606 5607 5609 5611
5634 5635 5636 5636 5637 5638 5639 5640 5641 5641 5641 5641 5641 5641 5640 5639 5638 5636 5635 5633 5630 5628 5625 5622 5620 5617 5613 5609 5606 5603 5601 5598 5595 5593 5592 5590 5590 5589 5590 5590 5591 5593 5595
5628 5629 5629 5629 5630 5630 5631 5631 5631 5631 5630 5630 5629 5628 5627 5626 5624 5622 5620 5618 5615 5613 5610 5608 5605 5602 5599 5595 5592 5589 5585 5583 5580 5578 5577 5576 5575 5574 5574 5574 5575 5576 5579
5623 5623 5623 5623 5622 5622 5622 5621 5621 5620 5619 5618 5617 5616 5614 5613 5610 5608 5606 5603 5600 5598 5596 5593 5590 5587 5584 5580 5577 5574 5570 5567 5567 5566 5561 5561 5559 5559 5559 5559 5560 5562 5564
5617 5617 5616 5616 5615 5614 5613 5613 5611 5610 5608 5607 5605 5604 5602 5599 5597 5595 5593 5590 5586 5583 5580 5578 5575 5571 5569 5566 5563 5560 5555 5552 5551 5549 5546 5546 5545 5545 5545 5545 5547 5548 5550
5612 5610 5609 5608 5607 5606 5605 5603 5602 5600 5598 5596 5594 5591 5589 5586 5584 5582 5580 5576 5573 5570 5567 5563 5561 5558 5554 5551 5548 5545 5542 5539 5537 5534 5532 5531 5531 5531 5532 5532 5534 5535 5538
5606 5604 5602 5601 5599 5598 5596 5594 5591 5589 5587 5584 5582 5579 5576 5574 5572 5569 5567 5564 5561 5558 5553 5549 5546 5543 5540 5537 5533 5531 5528 5525 5524 5522 5519 5518 5519 5519 5519 5520 5522 5523 5526
5600 5597 5595 5593 5591 5589 5587 5584 5581 5579 5577 5574 5571 5567 5564 5561 5559 5556 5553 5550 5547 5544 5540 5536 5532 5529 5526 5523 5519 5516 5514 5512 5510 5510 5509 5507 5506 5506 5508 5509 5510 5512 5514